Regional Weather Roundup
Issued by NWS

Home | Current Version | Previous Version | Text Only | Print | Product List | Glossary Off
Versions: 1 2 3 4 5 6 7 8 9 10 11 12 13 14 15 16 17 18 19 20 21 22 23 24 25 26 27 28 29 30 31 32 33 34 35 36 37 38 39 40 41 42 43 44 45 46 47 48 49 50

000
ASUS43 KBIS 020110
RWRND

NORTH DAKOTA REGIONAL WEATHER ROUNDUP
NATIONAL WEATHER SERVICE BISMARCK ND
800 PM CDT MON JUN 01 2015

NOTE: "FAIR" INDICATES FEW OR NO CLOUDS BELOW 12,000 FEET WITH NO
SIGNIFICANT WEATHER AND/OR OBSTRUCTIONS TO VISIBILITY.


NDZ001>003-009>011-017-020200-
NORTHWEST NORTH DAKOTA

CITY           SKY/WX    TMP DP  RH WIND       PRES   REMARKS
WILLISTON      MOSUNNY   85  54  34 N14       29.74S
MINOT          LGT RAIN  77  60  55 S10       29.72F
MINOT AFB      PTSUNNY   76  66  69 SW15      29.72F
$$

NDZ018>021-031>035-040>046-020200-
SOUTHWEST NORTH DAKOTA

CITY           SKY/WX    TMP DP  RH WIND       PRES   REMARKS
BISMARCK       MOSUNNY   80  61  52 S13       29.79F
DICKINSON      SUNNY     79  61  53 S12       29.77F
GARRISON         N/A     77  58  51 S12       29.76S
HETTINGER ARPT MOSUNNY   78  61  55 SE10      29.81F
$$

NDZ004>008-012>016-024-026-027-054-020200-
NORTHEAST NORTH DAKOTA

CITY           SKY/WX    TMP DP  RH WIND       PRES   REMARKS
GRAND FORKS    MOSUNNY   72  48  42 S22G33    29.89F
GRND FRKS AFB  SUNNY     73  49  44 S21G29    29.88F
DEVILS LAKE    MOSUNNY   75  55  50 S14       29.81F
$$

NDZ022-023-025-028>030-036>039-047>053-020200-
SOUTHEAST NORTH DAKOTA

CITY           SKY/WX    TMP DP  RH WIND       PRES   REMARKS
FARGO          SUNNY     73  47  39 SE22G31   29.92F
JAMESTOWN      MOSUNNY   76  59  55 S17       29.84F
$$



USA.gov is the U.S. government's official web portal to all federal, state and local government web resources and services.